Location: Stoke Bliss
(52.2667°N, 2.5167°W)
Time: 04:02:11
(UTC+00:00)

Cosmos 1271 Rocket - Visible Passes

Search period start: 17 June 2021 00:00
Search period end: 27 June 2021 00:00
Orbit: 497 x 545 km, 81.2° (Epoch: 16 June)

Date Brightness Start Highest point End Pass type
(mag) Time Alt. Az. Time Alt. Az. Time Alt. Az.
17 Jun 3.6 02:53:48 10° N 02:57:28 50° ENE 03:01:07 10° SSE visible
18 Jun 3.8 02:40:26 10° N 02:44:03 44° ENE 02:47:39 10° SE visible
19 Jun 4.0 02:27:04 10° N 02:30:38 39° ENE 02:34:11 10° SE visible
20 Jun 4.2 02:13:43 10° N 02:17:12 35° ENE 02:20:41 10° SE visible
21 Jun 4.4 02:00:23 10° N 02:03:47 32° ENE 02:07:11 10° SE visible
22 Jun 4.6 01:47:02 10° N 01:50:21 29° ENE 01:53:39 10° SE visible
23 Jun 4.7 01:33:42 10° N 01:36:55 26° ENE 01:40:07 10° SE visible
24 Jun 4.8 01:20:23 10° N 01:23:28 23° ENE 01:26:34 10° ESE visible
24 Jun 3.4 02:56:06 10° NNW 02:59:32 34° W 03:02:59 10° SSW visible
25 Jun 4.9 01:07:04 10° NNE 01:10:02 21° ENE 01:12:59 10° ESE visible
25 Jun 3.3 02:42:38 10° NNW 02:46:09 39° W 02:49:42 10° SSW visible
26 Jun 5.1 00:53:47 10° NNE 00:56:35 19° ENE 00:59:23 10° ESE visible
26 Jun 3.1 02:29:11 10° NNW 02:32:46 44° W 02:36:23 10° SSW visible
